TimeEET,TemperatureF,Dew PointF,Humidity,Sea Level PressureIn,VisibilityMPH,Wind Direction,Wind SpeedMPH,Gust SpeedMPH,PrecipitationIn,Events,Conditions,WindDirDegrees,DateUTC
12:00 AM,77.0,44.6,32,29.71,-9999.0,NW,3.5,-,N/A,,Clear,310,2013-04-26 22:00:00
1:00 AM,75.2,44.6,34,29.71,-9999.0,SW,3.5,-,N/A,,Clear,230,2013-04-26 23:00:00
2:00 AM,73,45,26,29.70,6,Calm,Calm,,,,,,2013-04-27 00:00:00
2:00 AM,73.4,44.6,36,29.71,-9999.0,Calm,Calm,-,N/A,,Clear,0,2013-04-27 00:00:00
3:00 AM,71.6,44.6,38,29.71,-9999.0,SW,2.3,-,N/A,,Clear,220,2013-04-27 01:00:00
4:00 AM,69.8,44.6,40,29.71,-9999.0,SSW,2.3,-,N/A,,Clear,200,2013-04-27 02:00:00
5:00 AM,69.8,44.6,40,29.71,-9999.0,SSW,4.6,-,N/A,,Clear,210,2013-04-27 03:00:00
6:00 AM,68.0,44.6,43,29.74,-9999.0,SW,3.5,-,N/A,,Clear,230,2013-04-27 04:00:00
7:00 AM,73.4,48.2,41,29.77,-9999.0,WSW,3.5,-,N/A,,Clear,250,2013-04-27 05:00:00
8:00 AM,78,47,23,29.78,6,SW,2.3,,,,,220,2013-04-27 06:00:00
8:00 AM,78.8,48.2,34,29.77,-9999.0,SW,2.3,-,N/A,,Clear,220,2013-04-27 06:00:00
9:00 AM,82.4,48.2,30,29.80,-9999.0,Calm,Calm,-,N/A,,Clear,0,2013-04-27 07:00:00
9:03 AM,82.4,48.2,30,29.80,-9999.0,Calm,Calm,-,N/A,,Clear,0,2013-04-27 07:03:00
10:00 AM,86.0,46.4,25,29.80,-9999.0,Calm,Calm,-,N/A,,Clear,0,2013-04-27 08:00:00
11:00 AM,87.8,50.0,27,29.77,-9999.0,Calm,Calm,-,N/A,,Clear,0,2013-04-27 09:00:00
12:00 PM,91.4,51.8,26,29.77,5.0,NNW,4.6,-,N/A,,Unknown,340,2013-04-27 10:00:00
1:00 PM,95.0,50.0,22,29.74,-9999.0,WNW,3.5,-,N/A,,Clear,300,2013-04-27 11:00:00
2:00 PM,97,49,12,29.72,6,WSW,4.6,,,,,240,2013-04-27 12:00:00
2:00 PM,96.8,48.2,19,29.74,-9999.0,WSW,4.6,-,N/A,,Clear,240,2013-04-27 12:00:00
3:00 PM,96.8,46.4,18,29.71,-9999.0,West,6.9,-,N/A,,Clear,260,2013-04-27 13:00:00
4:00 PM,96.8,46.4,18,29.71,-9999.0,WSW,5.8,-,N/A,,Clear,250,2013-04-27 14:00:00
5:00 PM,95.0,44.6,18,29.71,-9999.0,WSW,5.8,-,N/A,,Clear,250,2013-04-27 15:00:00
6:00 PM,93.2,44.6,19,29.71,-9999.0,West,3.5,-,N/A,,Clear,260,2013-04-27 16:00:00
7:00 PM,91.4,32.0,12,29.77,-9999.0,West,3.5,-,N/A,,Clear,260,2013-04-27 17:00:00
8:00 PM,83,44,16,29.73,6,Calm,Calm,,,,,,2013-04-27 18:00:00
8:00 PM,82.4,44.6,26,29.74,-9999.0,Calm,Calm,-,N/A,,Clear,0,2013-04-27 18:00:00
9:00 PM,82.4,42.8,25,29.74,-9999.0,Calm,Calm,-,N/A,,Clear,0,2013-04-27 19:00:00
10:00 PM,80.6,41.0,24,29.77,-9999.0,SSE,4.6,-,N/A,,Clear,160,2013-04-27 20:00:00
11:00 PM,78.8,41.0,26,29.77,-9999.0,SE,2.3,-,N/A,,Clear,140,2013-04-27 21:00:00